TimeCDT,TemperatureF,Dew PointF,Humidity,Sea Level PressureIn,VisibilityMPH,Wind Direction,Wind SpeedMPH,Gust SpeedMPH,PrecipitationIn,Events,Conditions,WindDirDegrees,DateUTC
12:56 AM,78.1,66.0,66,29.75,-9999.0,South,10.4,18.4,N/A,,Unknown,170,2013-06-12 05:56:00
1:56 AM,75.9,66.9,74,29.77,-9999.0,South,9.2,-,N/A,,Unknown,170,2013-06-12 06:56:00
2:56 AM,75.0,66.9,76,29.76,-9999.0,South,10.4,-,N/A,,Unknown,170,2013-06-12 07:56:00
3:56 AM,75.9,64.9,69,29.75,-9999.0,South,12.7,-,N/A,,Unknown,170,2013-06-12 08:56:00
4:56 AM,73.9,64.9,73,29.76,-9999.0,South,9.2,-,N/A,,Unknown,170,2013-06-12 09:56:00
5:56 AM,72.0,64.0,76,29.77,-9999.0,South,10.4,-,N/A,,Unknown,180,2013-06-12 10:56:00
6:56 AM,72.0,64.0,76,29.78,-9999.0,South,9.2,-,N/A,,Unknown,170,2013-06-12 11:56:00
7:56 AM,75.0,64.0,69,29.79,-9999.0,SSW,8.1,-,N/A,,Unknown,200,2013-06-12 12:56:00
8:56 AM,80.1,63.0,56,29.80,-9999.0,SSW,8.1,-,N/A,,Unknown,210,2013-06-12 13:56:00
9:56 AM,84.9,60.1,43,29.81,-9999.0,WSW,13.8,-,N/A,,Unknown,240,2013-06-12 14:56:00
10:56 AM,89.1,61.0,39,29.81,-9999.0,West,9.2,-,N/A,,Unknown,260,2013-06-12 15:56:00
11:56 AM,91.0,63.0,39,29.83,-9999.0,West,6.9,-,N/A,,Unknown,280,2013-06-12 16:56:00
12:56 PM,93.9,64.0,37,29.83,-9999.0,WNW,9.2,-,N/A,,Unknown,290,2013-06-12 17:56:00
1:56 PM,97.0,64.0,34,29.82,-9999.0,North,6.9,-,N/A,,Unknown,350,2013-06-12 18:56:00
2:56 PM,100.0,64.0,31,29.82,-9999.0,Variable,3.5,-,N/A,,Unknown,0,2013-06-12 19:56:00
3:56 PM,100.9,59.0,25,29.81,-9999.0,North,4.6,-,N/A,,Unknown,10,2013-06-12 20:56:00
4:56 PM,100.9,57.9,24,29.81,-9999.0,WNW,5.8,-,N/A,,Unknown,300,2013-06-12 21:56:00
5:56 PM,100.0,61.0,28,29.80,-9999.0,NNW,6.9,-,N/A,,Unknown,340,2013-06-12 22:56:00
6:56 PM,98.1,63.0,31,29.81,-9999.0,South,4.6,-,N/A,,Unknown,170,2013-06-12 23:56:00
7:56 PM,96.1,66.0,37,29.82,-9999.0,South,3.5,-,N/A,,Unknown,190,2013-06-13 00:56:00
8:56 PM,90.0,64.9,43,29.84,-9999.0,ENE,6.9,-,N/A,,Unknown,70,2013-06-13 01:56:00
9:56 PM,84.0,64.9,53,29.86,-9999.0,ENE,9.2,-,N/A,,Unknown,60,2013-06-13 02:56:00
10:56 PM,81.0,66.0,60,29.89,-9999.0,ENE,8.1,-,N/A,,Unknown,70,2013-06-13 03:56:00
11:56 PM,82.9,64.9,54,29.90,-9999.0,ENE,12.7,-,N/A,,Unknown,60,2013-06-13 04:56:00